TimeEDT,TemperatureF,Dew PointF,Humidity,Sea Level PressureIn,VisibilityMPH,Wind Direction,Wind SpeedMPH,Gust SpeedMPH,PrecipitationIn,Events,Conditions,WindDirDegrees,DateUTC
12:54 AM,42.1,28.0,58,29.97,10.0,WNW,8.1,-,N/A,,Scattered Clouds,300,2013-03-27 04:54:00
1:54 AM,41.0,28.0,60,29.97,10.0,WNW,8.1,-,N/A,,Mostly Cloudy,290,2013-03-27 05:54:00
2:54 AM,39.9,28.0,63,29.97,10.0,WNW,5.8,-,N/A,,Mostly Cloudy,300,2013-03-27 06:54:00
3:54 AM,39.9,28.0,63,29.97,10.0,WNW,4.6,-,N/A,,Mostly Cloudy,290,2013-03-27 07:54:00
4:54 AM,39.0,28.0,65,29.98,10.0,West,6.9,-,N/A,,Scattered Clouds,260,2013-03-27 08:54:00
5:54 AM,37.9,27.0,65,29.99,10.0,SW,4.6,-,N/A,,Mostly Cloudy,230,2013-03-27 09:54:00
6:54 AM,37.9,28.0,68,30.00,10.0,West,6.9,-,N/A,,Mostly Cloudy,260,2013-03-27 10:54:00
7:54 AM,39.0,28.0,65,30.02,10.0,West,5.8,-,N/A,,Scattered Clouds,270,2013-03-27 11:54:00
8:54 AM,42.1,28.0,58,30.04,10.0,WNW,13.8,19.6,N/A,,Scattered Clouds,290,2013-03-27 12:54:00
9:54 AM,43.0,27.0,53,30.04,10.0,WNW,17.3,23.0,N/A,,Mostly Cloudy,300,2013-03-27 13:54:00
10:54 AM,46.9,27.0,46,30.04,10.0,WNW,19.6,26.5,N/A,,Scattered Clouds,290,2013-03-27 14:54:00
11:54 AM,46.9,26.1,44,30.04,10.0,WNW,18.4,26.5,N/A,,Scattered Clouds,300,2013-03-27 15:54:00
12:54 PM,46.9,27.0,46,30.03,10.0,WNW,16.1,24.2,N/A,,Mostly Cloudy,300,2013-03-27 16:54:00
1:54 PM,46.0,27.0,47,30.03,10.0,NNW,13.8,24.2,0.00,Rain,Light Rain,330,2013-03-27 17:54:00
2:54 PM,46.9,25.0,42,30.01,10.0,WNW,17.3,25.3,0.00,,Mostly Cloudy,290,2013-03-27 18:54:00
3:54 PM,48.9,28.0,44,30.01,10.0,West,23.0,32.2,N/A,,Mostly Cloudy,280,2013-03-27 19:54:00
4:54 PM,48.0,26.1,42,30.01,10.0,West,26.5,32.2,0.00,,Mostly Cloudy,280,2013-03-27 20:54:00
5:54 PM,46.9,25.0,42,30.04,10.0,WNW,20.7,28.8,N/A,,Mostly Cloudy,300,2013-03-27 21:54:00
6:54 PM,45.0,26.1,48,30.04,10.0,WNW,8.1,-,0.00,,Scattered Clouds,290,2013-03-27 22:54:00
7:54 PM,44.1,23.0,43,30.06,10.0,WNW,10.4,-,N/A,,Scattered Clouds,300,2013-03-27 23:54:00
8:54 PM,42.1,24.1,49,30.08,10.0,West,6.9,-,N/A,,Scattered Clouds,280,2013-03-28 00:54:00
9:54 PM,41.0,25.0,53,30.09,10.0,West,10.4,-,N/A,,Mostly Cloudy,280,2013-03-28 01:54:00
10:54 PM,39.9,26.1,58,30.09,10.0,West,8.1,-,N/A,,Scattered Clouds,280,2013-03-28 02:54:00
11:54 PM,39.9,26.1,58,30.09,10.0,WNW,6.9,-,N/A,,Scattered Clouds,290,2013-03-28 03:54:00